When you browse on this site, cookies collect data to enhance your experience and personalize the content and advertising you see.
Visit our Privacy Policy to learn more. By continuing to use the site, you agree to this use of cookies and data.
  • In Portugal
  • List of Countries
  • For 7 days
  • Water Temperature
  • Satellite Maps
  • Weather Map
  • Weather Widgets
  • user-avatar
    Login

    Hourly Weather Iche

    Today, 27 June, Thursday

    Time Temperature Precipitation Wind Pressure Humidity
    00:00 +11°C° 0.1 mm 1 mps 579 mmHg 85%
    01:00 +11°C° 0 mm 1 mps 579 mmHg 83%
    02:00 +11°C° 0 mm 1 mps 579 mmHg 81%
    03:00 +10°C° 0 mm 1 mps 579 mmHg 79%
    04:00 +12°C° 0 mm 1 mps 579 mmHg 76%
    05:00 +13°C° 0 mm 1 mps 580 mmHg 73%
    06:00 +14°C° 0 mm 1 mps 580 mmHg 70%
    07:00 +15°C° 0 mm 1 mps 581 mmHg 67%
    08:00 +16°C° 0 mm 2 mps 581 mmHg 64%
    09:00 +17°C° 0 mm 2 mps 582 mmHg 61%
    10:00 +17°C° 0.7 mm 2 mps 581 mmHg 65%
    11:00 +17°C° 0.7 mm 2 mps 581 mmHg 69%
    12:00 +17°C° 0.7 mm 2 mps 581 mmHg 73%
    13:00 +17°C° 1.3 mm 2 mps 580 mmHg 74%
    14:00 +16°C° 1.3 mm 2 mps 580 mmHg 75%
    15:00 +16°C° 1.3 mm 1 mps 580 mmHg 76%
    16:00 +16°C° 0.6 mm 1 mps 579 mmHg 77%
    17:00 +16°C° 0.6 mm 1 mps 579 mmHg 77%
    18:00 +16°C° 0.6 mm 1 mps 579 mmHg 78%
    19:00 +14°C° 0.3 mm 1 mps 578 mmHg 81%
    20:00 +13°C° 0.3 mm 1 mps 577 mmHg 83%
    21:00 +11°C° 0.3 mm 1 mps 577 mmHg 86%
    22:00 +11°C° 0 mm 1 mps 576 mmHg 86%
    23:00 +11°C° 0 mm 1 mps 576 mmHg 86%

    Tomorrow, 28 June, Friday

    Time Temperature Precipitation Wind Pressure Humidity
    00:00 +9°C° 0 mm 2 mps 576 mmHg 86%
    01:00 +9°C° 0 mm 2 mps 575 mmHg 85%
    02:00 +9°C° 0 mm 2 mps 575 mmHg 84%
    03:00 +9°C° 0 mm 2 mps 575 mmHg 83%
    04:00 +10°C° 0 mm 2 mps 575 mmHg 81%
    05:00 +12°C° 0 mm 2 mps 576 mmHg 79%
    06:00 +13°C° 0 mm 2 mps 576 mmHg 78%
    07:00 +15°C° 0 mm 2 mps 577 mmHg 71%
    08:00 +16°C° 0 mm 1 mps 577 mmHg 65%
    09:00 +19°C° 0 mm 1 mps 578 mmHg 59%
    10:00 +18°C° 0.5 mm 2 mps 578 mmHg 59%
    11:00 +19°C° 0.5 mm 2 mps 577 mmHg 60%
    12:00 +19°C° 0.5 mm 2 mps 577 mmHg 61%
    13:00 +19°C° 1.1 mm 2 mps 577 mmHg 61%
    14:00 +19°C° 1.1 mm 2 mps 577 mmHg 61%
    15:00 +19°C° 1.1 mm 2 mps 576 mmHg 62%
    16:00 +18°C° 0.4 mm 2 mps 576 mmHg 65%
    17:00 +18°C° 0.4 mm 2 mps 575 mmHg 68%
    18:00 +18°C° 0.4 mm 1 mps 575 mmHg 72%
    19:00 +15°C° 0 mm 2 mps 574 mmHg 73%
    20:00 +14°C° 0 mm 2 mps 573 mmHg 75%
    21:00 +12°C° 0 mm 2 mps 573 mmHg 76%
    22:00 +12°C° 0 mm 2 mps 573 mmHg 76%
    23:00 +12°C° 0 mm 2 mps 573 mmHg 76%

    Day after tomorrow, 29 June, Saturday

    Time Temperature Precipitation Wind Pressure Humidity
    00:00 +12°C° 0 mm 2 mps 573 mmHg 76%
    01:00 +12°C° 0.1 mm 2 mps 573 mmHg 76%
    02:00 +12°C° 0.1 mm 2 mps 573 mmHg 77%
    03:00 +12°C° 0.1 mm 2 mps 573 mmHg 77%
    04:00 +13°C° 0.4 mm 1 mps 573 mmHg 79%
    05:00 +13°C° 0.4 mm 1 mps 573 mmHg 80%
    06:00 +13°C° 0.4 mm 1 mps 573 mmHg 82%
    07:00 +14°C° 0.3 mm 1 mps 574 mmHg 78%
    08:00 +16°C° 0.3 mm 2 mps 575 mmHg 74%
    09:00 +17°C° 0.3 mm 2 mps 575 mmHg 71%
    10:00 +17°C° 1.7 mm 2 mps 575 mmHg 73%
    11:00 +17°C° 1.7 mm 3 mps 575 mmHg 75%
    12:00 +17°C° 1.7 mm 3 mps 575 mmHg 77%
    13:00 +17°C° 2.1 mm 3 mps 575 mmHg 79%
    14:00 +16°C° 2.1 mm 2 mps 575 mmHg 81%
    15:00 +16°C° 2.1 mm 2 mps 574 mmHg 82%
    16:00 +16°C° 1.4 mm 2 mps 574 mmHg 83%
    17:00 +15°C° 1.4 mm 2 mps 574 mmHg 83%
    18:00 +15°C° 1.4 mm 1 mps 573 mmHg 84%
    19:00 +14°C° 1.1 mm 1 mps 574 mmHg 88%
    20:00 +13°C° 1.1 mm 1 mps 574 mmHg 92%
    21:00 +12°C° 1.1 mm 1 mps 574 mmHg 96%
    22:00 +12°C° 2.6 mm 1 mps 574 mmHg 96%
    23:00 +12°C° 2.6 mm 1 mps 574 mmHg 96%

    30 June, Sunday

    Time Temperature Precipitation Wind Pressure Humidity
    00:00 +12°C° 2.6 mm 1 mps 574 mmHg 96%
    01:00 +11°C° 0.5 mm 1 mps 574 mmHg 96%
    02:00 +11°C° 0.5 mm 1 mps 574 mmHg 96%
    03:00 +10°C° 0.5 mm 1 mps 573 mmHg 96%
    04:00 +10°C° 0.3 mm 1 mps 574 mmHg 96%
    05:00 +10°C° 0.3 mm 2 mps 574 mmHg 95%
    06:00 +10°C° 0.3 mm 2 mps 574 mmHg 95%
    07:00 +9°C° 0.5 mm 2 mps 574 mmHg 94%
    08:00 +9°C° 0.5 mm 2 mps 574 mmHg 94%
    09:00 +9°C° 0.5 mm 2 mps 574 mmHg 93%
    10:00 +9°C° 0.5 mm 2 mps 574 mmHg 92%
    11:00 +10°C° 0.5 mm 2 mps 575 mmHg 91%
    12:00 +10°C° 0.5 mm 3 mps 575 mmHg 90%
    13:00 +10°C° 0.7 mm 2 mps 575 mmHg 91%
    14:00 +10°C° 0.7 mm 2 mps 574 mmHg 93%
    15:00 +9°C° 0.7 mm 2 mps 574 mmHg 94%
    16:00 +9°C° 0.8 mm 2 mps 574 mmHg 95%
    17:00 +9°C° 0.8 mm 2 mps 574 mmHg 96%
    18:00 +9°C° 0.8 mm 2 mps 574 mmHg 98%
    19:00 +8°C° 1.9 mm 2 mps 574 mmHg 98%
    20:00 +8°C° 1.9 mm 2 mps 574 mmHg 98%
    21:00 +8°C° 1.9 mm 2 mps 575 mmHg 98%
    22:00 +8°C° 1.6 mm 2 mps 575 mmHg 98%
    23:00 +7°C° 1.6 mm 2 mps 575 mmHg 98%

    1 July, Monday

    Time Temperature Precipitation Wind Pressure Humidity
    00:00 +7°C° 1.6 mm 2 mps 575 mmHg 98%
    01:00 +7°C° 2.4 mm 2 mps 575 mmHg 98%
    02:00 +7°C° 2.4 mm 2 mps 574 mmHg 98%
    03:00 +6°C° 2.4 mm 2 mps 574 mmHg 98%
    04:00 +6°C° 2.8 mm 2 mps 574 mmHg 98%
    05:00 +6°C° 2.8 mm 2 mps 574 mmHg 98%
    06:00 +5°C° 2.8 mm 2 mps 574 mmHg 98%
    07:00 +5°C° 3.5 mm 2 mps 574 mmHg 98%
    08:00 +5°C° 3.5 mm 1 mps 574 mmHg 98%
    09:00 +4°C° 3.5 mm 1 mps 573 mmHg 98%
    10:00 +4°C° 4.3 mm 1 mps 573 mmHg 98%
    11:00 +4°C° 4.3 mm 1 mps 573 mmHg 98%
    12:00 +3°C° 4.3 mm 1 mps 573 mmHg 97%
    13:00 +4°C° 1.1 mm 1 mps 574 mmHg 96%
    14:00 +5°C° 1.1 mm 1 mps 574 mmHg 94%
    15:00 +6°C° 1.1 mm 1 mps 575 mmHg 92%
    16:00 +6°C° 0.1 mm 1 mps 575 mmHg 93%
    17:00 +6°C° 0.1 mm 1 mps 575 mmHg 94%
    18:00 +6°C° 0.1 mm 1 mps 575 mmHg 95%
    19:00 +5°C° 0.1 mm 1 mps 575 mmHg 96%
    20:00 +5°C° 0.1 mm 1 mps 575 mmHg 96%
    21:00 +4°C° 0.1 mm 1 mps 575 mmHg 96%
    22:00 +4°C° 0.1 mm 1 mps 575 mmHg 95%
    23:00 +4°C° 0.1 mm 1 mps 575 mmHg 93%

    2 July, Tuesday

    Time Temperature Precipitation Wind Pressure Humidity
    00:00 +3°C° 0.1 mm 1 mps 574 mmHg 91%
    01:00 +3°C° 0 mm 1 mps 574 mmHg 90%
    02:00 +2°C° 0 mm 1 mps 574 mmHg 89%
    03:00 +2°C° 0 mm 1 mps 574 mmHg 88%
    04:00 +3°C° 0 mm 1 mps 575 mmHg 87%
    05:00 +3°C° 0 mm 1 mps 575 mmHg 85%
    06:00 +4°C° 0 mm 1 mps 576 mmHg 83%
    07:00 +6°C° 0 mm 1 mps 577 mmHg 78%
    08:00 +7°C° 0 mm 1 mps 578 mmHg 73%
    09:00 +9°C° 0 mm 1 mps 578 mmHg 68%
    10:00 +9°C° 0 mm 2 mps 579 mmHg 65%
    11:00 +10°C° 0 mm 2 mps 579 mmHg 63%
    12:00 +12°C° 0 mm 2 mps 580 mmHg 60%
    13:00 +13°C° 0 mm 2 mps 580 mmHg 61%
    14:00 +13°C° 0 mm 2 mps 580 mmHg 61%
    15:00 +13°C° 0 mm 2 mps 580 mmHg 62%
    16:00 +13°C° 0 mm 1 mps 579 mmHg 67%
    17:00 +12°C° 0 mm 1 mps 579 mmHg 73%
    18:00 +11°C° 0 mm 1 mps 579 mmHg 79%
    19:00 +10°C° 0 mm 1 mps 578 mmHg 78%
    20:00 +8°C° 0 mm 1 mps 577 mmHg 78%
    21:00 +6°C° 0 mm 2 mps 577 mmHg 77%
    22:00 +6°C° 0 mm 2 mps 576 mmHg 75%
    23:00 +5°C° 0 mm 2 mps 576 mmHg 73%
    Show more